This demonstration page uses our WeatherBlox Daily Observations layout. Learn more.

Left ArrowRight Arrow

Hourly Observations for September 3, 2018

Temp ( °F °C ) Dew Point ( °F °C ) Humidity (%) Winds ( mph kmh ) Pressure ( in mb ) Visibility ( mi km ) Precip ( " mm )
12:53 am 00:53 Mostly Cloudy 67 19.4 65 18.3 93 93 Calm 30.01 1016 10 16 0.00 0.00
1:53 am 01:53 Cloudy 67 19.4 65 18.3 93 93 SSE 5 7 29.99 1016 10 16 0.00 0.00
2:53 am 02:53 Cloudy 67 19.4 65 18.3 93 93 S 3 6 30.00 1016 10 16 0.00 0.00
3:53 am 03:53 Cloudy 66 18.9 65 18.3 96 96 SSE 3 6 30.01 1016 10 16 0.00 0.00
4:53 am 04:53 Cloudy 66 18.9 65 18.3 96 96 SE 6 9 30.01 1016 10 16 0.00 0.00
5:15 am 05:15 Cloudy 66 18.9 65 18.3 96 96 SSE 6 9 30.00 1016 10 16 0.00 0.00
5:24 am 05:24 Cloudy 66 18.9 65 18.3 96 96 SE 7 11 30.00 1016 10 16 0.00 0.00
5:53 am 05:53 Cloudy 66 18.9 65 18.3 96 96 ESE 6 9 30.01 1016 10 16 0.00 0.00
6:53 am 06:53 Cloudy with Mist and Fog 66 18.9 66 18.9 100 100 ESE 6 9 30.02 1017 2 3 0.00 0.00
7:00 am 07:00 Cloudy with Mist and Fog 66 19 66 19 100 100 ESE 5 7 30.00 1016 1 2 0.00 0.00
7:16 am 07:16 Mostly Cloudy with Fog 66 18.9 66 18.9 100 100 SE 5 7 30.00 1016 1 1 0.00 0.00
7:53 am 07:53 Mostly Cloudy with Fog 66 18.9 66 18.9 100 100 SE 3 6 30.04 1017 0 0 0.00 0.00
8:53 am 08:53 Mostly Cloudy with Fog 67 19.4 67 19.4 100 100 SSE 7 11 30.05 1018 1 1 0.00 0.00
9:53 am 09:53 Cloudy with Mist and Fog 68 20 68 20 100 100 S 7 11 30.06 1018 1 2 0.00 0.00
10:11 am 10:11 Cloudy with Mist and Fog 68 20 68 20 100 100 S 6 9 30.03 1017 3 5 0.00 0.00
10:53 am 10:53 Cloudy 68 20 68 20 100 100 SSW 5 7 30.07 1018 10 16 0.00 0.00
11:13 am 11:13 Cloudy 68 20 68 20 100 100 S 7 11 30.03 1017 10 16 0.00 0.00
11:53 am 11:53 Cloudy 71 21.7 67 19.4 87 87 S 7 11 30.06 1018 10 16 0.00 0.00
12:42 pm 12:42 Cloudy 72 22 66 19 83 83 SSE 8 13 30.03 1017 10 16 0.00 0.00
12:53 pm 12:53 Cloudy 72 22.2 66 18.9 82 82 SSE 6 9 30.05 1018 10 16 0.00 0.00
1:42 pm 13:42 Partly Cloudy 74 23.3 67 19.4 79 79 SSE 7 11 30.03 1017 10 16 0.00 0.00
1:53 pm 13:53 Mostly Cloudy with Light Rain 73 22.8 67 19.4 81 81 S 7 11 30.04 1017 10 16 0.00 0.03
2:24 pm 14:24 Mostly Cloudy 73 23 66 19 78 78 S 8 13 30.03 1017 10 16 0.00 0.00
2:53 pm 14:53 Cloudy 73 22.8 66 18.9 79 79 SE 6 9 30.03 1017 10 16 0.00 0.03
3:53 pm 15:53 Cloudy 74 23.3 67 19.4 79 79 S 7 11 30.03 1017 10 16 0.00 0.00
4:53 pm 16:53 Cloudy 75 23.9 68 20 79 79 S 6 9 30.01 1016 10 16 0.00 0.00
5:53 pm 17:53 Mostly Sunny 74 23.3 68 20 82 82 SSE 7 11 30.00 1016 10 16 0.00 0.00
6:53 pm 18:53 Mostly Cloudy 73 22.8 68 20 84 84 ESE 7 11 30.01 1016 10 16 0.00 0.00
7:53 pm 19:53 Mostly Cloudy 73 22.8 68 20 84 84 SE 6 9 30.00 1016 10 16 0.00 0.00
8:53 pm 20:53 Cloudy with Light Rain 72 22.2 69 20.6 91 91 ESE 5 7 30.01 1016 10 16 0.00 0.03
9:34 pm 21:34 Cloudy 72 22 70 21 94 94 ESE 6 9 30.00 1016 10 16 0.00 0.00
9:53 pm 21:53 Cloudy 72 22.2 69 20.6 91 91 SE 10 17 30.04 1017 10 16 0.00 0.03
10:00 pm 22:00 Cloudy 72 22 70 21 94 94 SSE 9 15 30.03 1017 10 16 0.00 0.00
10:29 pm 22:29 Cloudy 70 21 66 19 88 88 SSE 14 22 30.03 1017 10 16 0.00 0.00
10:53 pm 22:53 Mostly Clear 69 20.6 67 19.4 93 93 SSE 10 17 30.03 1017 10 16 0.00 0.00
11:53 pm 23:53 Cloudy 68 20 65 18.3 90 90 S 5 7 30.01 1016 10 16 0.00 0.00

Powered by AerisWeather